Showing default

QIANFAN-138, 69084

Orbit data source: Space-Track

QIANFAN-138, 69084 is a Chinese payload satellite in LEO that was launched on Tue, 12 May 2026 UTC via a CHANG ZHENG 6A launch vehicle from the Taiyaun Space Center, China (TSC). Payload-class satellites include a variety of spacecraft equipped with specific instruments for various scientific and technological missions. These include communications satellites like Starlink; space stations such as the ISS; scientific satellites like the Hubble; Earth observation satellites from companies like Planet Labs, Umbra, and HawkEye 360; GPS; miniature CubeSats for education and research; and military/defense satellites.

Loading next visibility...
Identifier
69084, 2026-104M
Orbit
LEO
Country
Flag of CNCN / PRC
Related business
Manufacturer
SECM
Mission
Operational spacecraft
Bus & Motor
QIANFAN, Unknown motor
Mass
267 kg wet, ~267 kg dry
Launch date (UTC)
2026-05-12 (4 weeks ago)
Launch vehicle
CHANG ZHENG 6A
Launch site
Taiyaun Space Center, China (TSC)
Object type
Payload
Rocket body
Debris
Shape & HBR
Unknown
Radar Cross Section
Large (>1 m²)

Expand to show TLE details & history
Last TLE update: 2 days ago

TLE from 2 days ago
0 QIANFAN-138
1 69084U 26104M   26155.25664558  .00000122  00000-0  49957-4 0  9993
2 69084  88.9863 343.0856 0004233 148.7892 211.3551 14.20801424  3255
Epoch: 2026-06-04T06:09Z
TLE epoch observation values (Epoch: 2026-06-04T06:09:34.178Z)
Latitude
0.00004°
Longitude
-2.01032°
Altitude
828.302 km
Speed
7.437 km/s
True Right ascension
22h 52m 20s
True Declination
0° 00' 00"
Sunlit
Object was in daylight at epoch
Visualization orbit readout
Latitude
Unknown
Longitude
Unknown
Altitude
Unknown
Speed
Unknown
Apparent Right ascension
Unknown
Apparent Declination
Unknown
Sunlit
N/A
Visualization observer readout
Local Sidereal Time
02:52:39
Azimuth
Unknown
Elevation
Unknown
Doppler factor
Unknown
Orbital elements
Apogee altitude
822.641 km
Perigee altitude
816.547 km
Semi-major axis
7,197.731 km
Eccentricity
0.00042
Inclination
88.9863°
RAAN
343.0856°
Arg. of periapsis
148.7892°
True anomaly
211.32987°
Mean anomaly
211.3551°
Eccentric anomaly
211.34248°
Mean motion
3.55426 °/min
Orbital period
101.29 mins
BSTAR
0.000049957
Loading maneuver chart data...
Computing Atmospheric mass density...
Loading historical data...
Loading historical data...
Loading historical data...
Loading historical data...
Loading historical data...
Loading historical data...
Loading historical data...

Documentation

Showing up to 5 results
|